Weather in Dubovka

Russia / Tula Oblast     53°55′15″N   38°06′01″E
temp.,
°C
wind,
m/s
gust,
m/s
humid.,
%
clouds,
%
prec.,
mm/h
press.,
hPa
HPBL,
m
12 may, wed
wed1200:00+8se35915 0.0 102687
03:00+7se22860 0.0 102612
06:00+7e24842 0.0 102689
09:00+11ne5577100 0.2 1025555
12:00+8nne2294100 2.8 1024152
15:00+8w3497100 8.4 1020210
18:00+9sw5798100 10.1 1016311
21:00+7sse389718 10.5 1018218
13 may, thu
thu1300:00+6ese369625 0.0 1019102
03:00+6e499576 0.0 1019178
06:00+7e5139428 0.0 1019334
09:00+12ese7128190 0.0 1018613
12:00+16se7116794 0.1 10161302
15:00+10sse51293100 5.8 1017435
18:00+14sse498486 0.4 1015977
21:00+10sse3493100 0.6 101649
14 may, fri
fri1400:00+10sse33937 0.0 101643
03:00+9sse2293100 0.0 101622
06:00+10se359397 0.0 1017104
09:00+16se578292 0.0 1016384
12:00+20se6871100 0.1 10151150
15:00+22se710668 0.1 10131451
18:00+20sse7137421 1.8 1011649
21:00+16sse41289100 1.9 1011250
15 may, sat
sat1500:00+15se3690100 0.4 1011116
03:00+14sse41091100 3.1 1011208
06:00+15se4994100 5.5 1010195
09:00+18sse4788100 6.1 1009477
12:00+20ssw5875100 1.6 1010902
15:00+21ssw79667 2.4 10101333
18:00+19sw57741 0.8 1011732
21:00+15ssw3589100 0.9 101284
16 may, sun
sun1600:00+13ssw35904 0.0 101268
03:00+12ssw36934 0.0 101398
06:00+12ssw37930 0.0 1013200
09:00+16sw58752 0.0 1014842
12:00+18sw57620 0.0 10141201
15:00+20wsw34585 0.0 10141316
18:00+19sw236710 0.0 1014937
21:00+15e11766 0.0 101411